Regional Weather Roundup
Issued by NWS State College, PA

Home | Current Version | Previous Version | Text Only | Print | Product List | Glossary Off
Versions: 1 2 3 4 5 6 7 8 9 10 11 12 13 14 15 16 17 18 19 20 21 22 23 24 25 26 27 28 29 30 31 32 33 34 35 36 37 38 39 40 41 42 43 44 45 46 47 48 49 50

000
ASUS41 KCTP 061110
RWRCTP

REGIONAL WEATHER ROUNDUP
NATIONAL WEATHER SERVICE STATE COLLEGE PA
700 AM EDT FRI MAY 06 2016

Note: "fair" indicates few or no clouds below 12,000 feet with no
significant weather and/or obstructions to visibility.

* = STATION THAT DOES NOT REPORT PRECIPITATION /E.G. RAIN...SNOW...ETC/
    THUNDER OR FOG.

PAZ002>004-007>009-013>016-020>023-029>032-061200-
WESTERN PENNSYLVANIA

CITY           SKY/WX    TMP DP  RH WIND       PRES   REMARKS
ERIE           PTCLDY    42  39  89 CALM      29.86R
MEADVILLE      PTCLDY    42  41  96 N6        29.84R
FRANKLIN*      PTCLDY    45  39  81 N3        29.85R
NEW CASTLE     FAIR      46  43  89 NW3       29.85R
BEAVER COUNTY  MOCLDY    46  43  87 N6        29.83
BUTLER*        MOCLDY    48  41  76 N3        29.84R
PITTSBURGH INT MOCLDY    51  42  71 N14       29.80R
PITTSBURGH     CLOUDY    50  42  74 N10       29.79R
INDIANA*       CLOUDY    52  43  71 N8        29.81R
LATROBE        CLOUDY    48  48 100 CALM      29.79R
WASHINGTON CO* CLOUDY    48  43  81 N3        29.81R
$$

PAZ004>006-010>012-017>019-024>028-033>037-041-042-045-046-049>053-061200-
CENTRAL PENNSYLVANIA

CITY           SKY/WX    TMP DP  RH WIND       PRES   REMARKS
BRADFORD       CLOUDY    45  38  76 N8        29.80R
DUBOIS         CLOUDY    47  38  71 N9        29.78R
CLEARFIELD     CLOUDY    49  40  71 N10       29.76R
JOHNSTOWN      CLOUDY    47  37  68 N9        29.74R
ALTOONA        CLOUDY    50  42  74 N6        29.73S
STATE COLLEGE  MOCLDY    50  43  76 N12       29.73S
WILLIAMSPORT   CLOUDY    53  43  68 NW5       29.71S
SELINSGROVE    CLOUDY    54  46  74 N10       29.69F
FT INDIANTOWN  CLOUDY    55  45  70 NE7       29.68R
CAPITAL CITY   CLOUDY    56  44  64 N8        29.69R
HARRISBURG     CLOUDY    55  44  66 N7        29.68R
YORK           CLOUDY    52  46  80 NW3       29.68R
$$

PAZ038>040-043-044-047-048-054-055-060>062-067>071-061200-
EASTERN PENNSYLVANIA

CITY           SKY/WX    TMP DP  RH WIND       PRES   REMARKS
SCRANTON       CLOUDY    52  44  74 NE10      29.69S
MOUNT POCONO   LGT RAIN  46  41  82 NE9       29.68R
ALLENTOWN      LGT RAIN  52  48  87 E8        29.69R
QUAKERTOWN*    CLOUDY    50  48  93 NE6       29.68S
READING        RAIN      52  47  83 CALM      29.68R
LANCASTER      CLOUDY    53  45  74 N3        29.68R
COATESVILLE    HVY RAIN  50  50 100 MISG      29.68S
POTTSTOWN      RAIN      50  50 100 NE8       29.68R FOG
BLUE BELL      CLOUDY    46  46 100 CALM      29.66S
DOYLESTOWN     LGT RAIN  47  47 100 N9        29.66S
WILLOW GROVE   NOT AVBL
NORTH PHILA    RAIN      50  48  93 NE10      29.67S FOG
PHILADELPHIA   LGT RAIN  51  46  83 NE14G22   29.66S
$$




USA.gov is the U.S. government's official web portal to all federal, state and local government web resources and services.